Погода в Игарке

Погода в Игарке : погода сейчас, прогноз погоды и архив. Всё, что Вы хотите узнать о погоде в Игарке!

Поиск расширенной информации на нашем сайте:

Другие новости

Новости СМИ2

Главная страница сайта

Новости сайта

03.07.2017

Напоминаем, что на нашем специализированном сайте Метеоцентр.Азия вы можете получить высокодетализированные автоматические прогнозы погоды по пунктам России, СНГ и мира в авиационном формате (включающие направление и скорость ветра, видимость, явления погоды, количество и форму облачности, нижнюю и верхнюю границу облачности).

Рекомендуем: Доставка канапе и фуршетных блюд по Москве catering.su.

Погода в Игарке - сегодня

Время (UTC), дата Ветер
(°,м/с) 
Видим.   Явления Облачность Т
(°С)
Тd
(°С)
f(%) Тe
(°С)
Pmin
(гПа)
dP
(гПа)
Po
(мм)
O2
(г/м3)
Тmin Tmax R s Состояние
почвы
21 20.02.18 340 (С) 10 км    ясно 
-36.9 -39.8 74 -38  1028.7  0.8  768  360           
00 21.02.18 340 (С) 10 км    ясно 
-38.7 -42 71 -40  1029.7  0.9  769  363  -38.8      102  равномерный
сухой снег
100% 
03 21.02.18 тихо ()   20000 м    1/0 верхняя 
[Ci fib]
-37.6 -40.5 74 -38  1030.3  0.6  770  362  -39.2         
06 21.02.18 180 (Ю) 20000 м    3/0 верхняя 
[Ci fib]
-33.8 -36.8 74 -35  1030.6  0.3  770  356           
09 21.02.18 тихо ()   20000 м    ясно 
-32.4 -36.2 69 -32  1031.3  0.8  770  354           
12 21.02.18 300 (СЗ) 10 км    ясно 
-34 -36.8 76 -35  1031.4  770  357    -32.2       
15 21.02.18 тихо ()   10 км    ясно 
-36.8 -39.8 74 -37  1030.8  -0.6  770  361           
18 21.02.18 310 (СЗ) 10 км    3/0 верхняя 
[Ci fib]
-34.8 -37.7 75 -39  1030  -0.8  769  357           
21 21.02.18 310 (СЗ) 10 км    8/5 540 м верхняя 
[Sc|Ci fib]
-34.9 -37.7 75 -39  1029.9  -0.1  769  357           
00 22.02.18 300 (СЗ) 10 км    3/1 600 м верхняя 
[Sc|Ci fib]
-36.7 -39.4 76 -38  1029  -0.8  769  360  -37.6      102  равномерный
сухой снег
100% 
06 22.02.18 310 (СЗ) 10 км    9/4 300 м средняя, верхняя 
[Sc|Ac trans|Cs]
-31.2 -34.3 74 -32  1026.4  -1.2  767  351           
09 22.02.18 310 (СЗ) 10 км  слаб. снег  9/3 600 м средняя, верхняя 
[Sc|Ac trans|Cs]
-29.8 -32.8 75 -31  1025.2  -1.2  758  345           
12 22.02.18 тихо ()   10 км  {снег}  9/0 средняя, верхняя 
[Ac trans|Ci fib]
-33 -36 74 -33  1024.4  -0.9  765  353    -29.3  0.0     
15 22.02.18 тихо ()   10 км    3/0 верхняя 
[Ci fib]
-37.6 -41.2 69 -38  1023.2  -1.3  764  359           
18 22.02.18 010 (С) 10 км    3/0 верхняя 
[Ci fib]
-38 -41.6 69 -39  1022.1  -1.1  763  359           
21 22.02.18 030 (СВ) 10 км    4/3 300 м верхняя 
[Sc|Ci fib]
-37.2 -40.8 69 -38  1021.7  -0.3  763  358           
00 23.02.18 тихо ()   10 км    ясно 
-37.6 -41.2 69 -38  1021.4  -0.4  763  359  -39.9      102  равномерный
сухой снег
100% 
03 23.02.18 тихо ()   20000 м    1/0 верхняя 
[Ci fib]
-38.2 -41.6 70 -38  1021.2  -0.2  763  359           
06 23.02.18 060 (СВ) 20000 м    8/0 верхняя 
[Ci fib]
-34.6 -38.1 71 -36  1020.8  -0.3  763  354           
09 23.02.18 030 (СВ) 20000 м    3/0 верхняя 
[Ci fib]
-29 -32.8 70 -30  1020.7  763  346           
12 23.02.18 040 (СВ) 10 км    3/0 верхняя 
[Ci fib]
-28.8 -31.9 75 -29  1020.6  -0.1  762  345    -28.4       
15 23.02.18 050 (СВ) 10 км    ясно 
-25.3 -28.5 75 -29  1020.6  0.1  763  340           
18 23.02.18 060 (СВ) 10 км    9/0 средняя, верхняя 
[Ac trans|Ci fib]
-23 -27 70 -29  1020.5  -0.1  762  337           
21 23.02.18 070 (В) 10 км    9/0 средняя, верхняя 
[Ac trans|Ci fib]
-22.7 -26.7 70 -29  1020.6  0.1  763  337           
00 24.02.18 070 (В) 10 км    8/0 средняя, верхняя 
[Ac trans|Ci fib]
-32.3 -36.4 67 -40  1020.6  763  350  -28.9      100  равномерный
сухой снег
100% 
Время (UTC), дата Ветер
(°,м/с) 
Видим.   Явления Облачность Т
(°С)
Тd
(°С)
f(%) Тe
(°С)
Pmin
(гПа)
dP
(гПа)
Po
(мм)
O2
(г/м3)
Тmin Tmax R s Состояние
почвы

Для получения пояснительной информации подведите курсор к названию столбца.

ПОГОДА в Игарке - архив

Всё, что Вы хотите узнать о погоде в Игарке - удобно и подробно!

Выберите нужную дату (начиная с 1 января 2015* года) и нажмите кнопку "Найти".
Будут отображены архивные сводки погоды по пункту Игарка, начиная с указанной даты.


Отображать данные в формате CSV (для использования в таблицах Excel)


Внимание! Наш архив погоды предназначен исключительно для личного некоммерческого использования в познавательных целях. Если Вам необходимы официальные справки о состоянии погоды (для производственных, юридических, коммерческих и т.п. целей), обращайтесь в органы Росгидромета.

*Примечание: данная дата относится к архиву по метеостанциям СССР (Россия, СНГ, Балтия).
Архив по метеостанциям Зарубежной Европы и Азии (кроме Китая) хранится 10 дней, по другим регионам земного шара (Китай, Африка, Америка, Австралия, Океания) - 1 день.

Игарка - район местоположения метеостанции


Название, широта, долгота, высота метеостанции:
Игарка 67.5°ш. 86.4°д. 25 м над ур. моря [Российская Федерация]

Дополнительная информация

В oтличие oт бoльшинства пoгoдных сайтoв мы публикуем пoдрoбную метеoинфoрмацию в детальнoм прoфессиoнальнoм фoрмате.

Характеристики температуры и влажнoсти вoздуха измеряются на высoте 2 м в тени вдали oт зданий и деревьев.
Скoрoсть ветра измеряется на высoте 10 м (на урoвне рoста челoвека скoрoсть ветра ниже в 1.5-2 раза). Если метеoстанция нахoдится в гoрoде или в лесу, тo скoрoсть ветра занижена на 2-4 м/с пo сравнению с oткрытым местoм. Скoрoсть ветра над акватoриями крупных рек и oзёр, а также на вершинах хoлмoв на 2-5 м/с выше, чем в oбычных услoвиях.
Атмoсфернoе давление в разных тoчках местнoсти мoжет значительнo oтличаться oт давления на метеoстанции, в зависимoсти oт услoвий рельефа (при пoдъёме на 10 м давление пoнижается примернo на 1 мм рт.ст.).